N7QNM-13 Weather Reports


Display with metric or nautical units.
time (UTC)temp
F
wind
direction
speed
MPH
gust
MPH
rain 1hr
in
rain 24hr
in
rain mn
in
humidity
%
barometer
mb
20200929100028 42 0.0 0.0 0.00 0.00 0.00 90 1022.3
20200929095021 43 0.0 0.0 0.00 0.00 0.00 92 1022.3
20200929094021 43 0.0 0.0 0.00 0.00 0.00 88 1022.3
20200929093024 44 0.0 0.0 0.00 0.00 0.00 83 1022.4
20200929092021 45 0.0 0.0 0.00 0.00 0.00 80 1022.5
20200929091029 47 0.0 0.0 0.00 0.00 0.00 73 1022.6
20200929090033 47 130 1.0 4.0 0.00 0.00 0.00 71 1022.5
20200929085023 50 183 3.0 4.0 0.00 0.00 0.00 65 1022.8
20200929084031 45 186 1.0 2.0 0.00 0.00 0.00 74 1022.7
20200929083024 44 0.0 0.0 0.00 0.00 0.00 80 1022.8
20200929082026 44 0.0 0.0 0.00 0.00 0.00 81 1022.8
20200929081025 44 0.0 0.0 0.00 0.00 0.00 79 1022.9
20200929080025 46 0.0 0.0 0.00 0.00 0.00 74 1022.9
20200929075024 45 0.0 0.0 0.00 0.00 0.00 77 1022.9
20200929074023 47 0.0 0.0 0.00 0.00 0.00 72 1022.8
20200929073023 46 0.0 0.0 0.00 0.00 0.00 71 1023.0
20200929072027 47 0.0 0.0 0.00 0.00 0.00 70 1022.8
20200929071023 47 0.0 0.0 0.00 0.00 0.00 73 1022.9
20200929070030 47 0.0 0.0 0.00 0.00 0.00 71 1023.0
20200929065022 46 0.0 0.0 0.00 0.00 0.00 71 1022.9
20200929064026 47 0.0 0.0 0.00 0.00 0.00 69 1022.9
20200929063025 46 0.0 0.0 0.00 0.00 0.00 73 1022.9
20200929062038 46 0.0 0.0 0.00 0.00 0.00 76 1022.9
20200929061030 46 0.0 0.0 0.00 0.00 0.00 76 1022.8
20200929060035 47 0.0 0.0 0.00 0.00 0.00 76 1022.8
20200929055032 48 0.0 0.0 0.00 0.00 0.00 73 1022.8
20200929054021 48 270 0.0 2.0 0.00 0.00 0.00 75 1022.9
20200929053021 48 264 1.0 2.0 0.00 0.00 0.00 68 1022.9
20200929052023 49 0.0 0.0 0.00 0.00 0.00 67 1022.9
20200929051034 51 0.0 0.0 0.00 0.00 0.00 61 1023.0
20200929050032 51 183 1.0 2.0 0.00 0.00 0.00 58 1022.7
20200929045022 50 0.0 0.0 0.00 0.00 0.00 61 1022.7
20200929044026 50 0.0 0.0 0.00 0.00 0.00 60 1022.8
20200929043021 50 0.0 0.0 0.00 0.00 0.00 64 1022.8
20200929042028 51 0.0 0.0 0.00 0.00 0.00 67 1022.9
20200929041025 52 0.0 0.0 0.00 0.00 0.00 66 1022.9
20200929040027 53 0.0 0.0 0.00 0.00 0.00 60 1022.9
20200929035025 54 216 1.0 2.0 0.00 0.00 0.00 56 1022.8
20200929034023 54 0.0 0.0 0.00 0.00 0.00 58 1022.8
20200929033028 54 0.0 0.0 0.00 0.00 0.00 55 1022.8
20200929032023 56 0.0 0.0 0.00 0.00 0.00 53 1022.7
20200929031022 56 0.0 0.0 0.00 0.00 0.00 56 1022.7
20200929030024 57 0.0 0.0 0.00 0.00 0.00 53 1022.7
20200929025029 58 0.0 0.0 0.00 0.00 0.00 54 1022.6
20200929024026 60 0.0 0.0 0.00 0.00 0.00 50
20200929023022 61 0.0 0.0 0.00 0.00 0.00 47
20200929022029 62 0.0 0.0 0.00 0.00 0.00 46 1022.6
20200929021030 64 0.0 0.0 0.00 0.00 0.00 46 1022.8
20200929020025 65 167 1.0 2.0 0.00 0.00 0.00 40 1022.8
20200929015031 67 0.0 0.0 0.00 0.00 0.00 38 1022.8
20200929014021 68 171 2.0 4.0 0.00 0.00 0.00 36 1022.8
20200929013041 70 177 1.0 2.0 0.00 0.00 0.00 35 1023.0
20200929012029 70 127 2.0 2.0 0.00 0.00 0.00 37 1023.0
20200929011024 71 0.0 0.0 0.00 0.00 0.00 36 1023.0
20200929010029 72 131 0.0 2.0 0.00 0.00 0.00 37 1023.1
20200929005029 72 101 0.0 1.0 0.00 0.00 0.00 38 1023.3
20200929004029 73 63 2.0 3.0 0.00 0.00 0.00 37 1023.4
20200929003045 74 61 3.0 4.0 0.00 0.00 0.00 35 1023.6
20200929002043 74 69 2.0 3.0 0.00 0.00 0.00 34 1023.7
20200929001026 75 112 1.0 2.0 0.00 0.00 0.00 33 1023.9
20200929000039 75 86 2.0 3.0 0.00 0.00 0.00 33 1023.9
20200928235039 75 88 2.0 3.0 0.00 0.00 0.00 32 1024.1
20200928234022 75 70 2.0 3.0 0.00 0.00 0.00 32 1024.2
20200928233031 76 46 3.0 4.0 0.00 0.00 0.00 33 1024.3
20200928232036 76 71 2.0 4.0 0.00 0.00 0.00 32 1024.5
20200928231024 76 66 3.0 5.0 0.00 0.00 0.00 32 1024.6
20200928230033 76 70 2.0 3.0 0.00 0.00 0.00 32 1024.8
20200928225032 76 79 3.0 4.0 0.00 0.00 0.00 31 1024.8
20200928224024 76 41 3.0 5.0 0.00 0.00 0.00 31 1025.0
20200928223021 76 50 4.0 5.0 0.00 0.00 0.00 33 1025.3
20200928222021 76 98 3.0 4.0 0.00 0.00 0.00 33 1025.4
20200928221022 76 50 5.0 6.0 0.00 0.00 0.00 33 1025.4
20200928220029 75 103 2.0 4.0 0.00 0.00 0.00 33 1025.5
20200928215043 75 81 3.0 5.0 0.00 0.00 0.00 33 1025.6
20200928214023 75 75 3.0 4.0 0.00 0.00 0.00 35 1025.9
20200928213026 75 84 3.0 4.0 0.00 0.00 0.00 36 1025.8
20200928212024 75 31 3.0 5.0 0.00 0.00 0.00 35 1026.0
20200928211041 75 64 4.0 7.0 0.00 0.00 0.00 35 1026.4
20200928210033 74 86 3.0 4.0 0.00 0.00 0.00 35 1026.5
20200928205024 74 45 3.0 5.0 0.00 0.00 0.00 34 1026.8
20200928204022 73 52 3.0 5.0 0.00 0.00 0.00 37 1027.3
20200928203033 74 69 3.0 5.0 0.00 0.00 0.00 37 1027.5
20200928202026 72 43 2.0 5.0 0.00 0.00 0.00 37 1027.5
20200928201028 72 121 2.0 4.0 0.00 0.00 0.00 38 1027.6
20200928200038 71 101 2.0 3.0 0.00 0.00 0.00 41 1027.8
20200928195024 71 116 3.0 4.0 0.00 0.00 0.00 42 1028.0
20200928194027 69 157 3.0 4.0 0.00 0.00 0.00 42 1028.1
20200928193025 69 150 2.0 4.0 0.00 0.00 0.00 41 1028.2
20200928192034 69 51 2.0 3.0 0.00 0.00 0.00 40 1028.3
20200928191032 69 260 2.0 3.0 0.00 0.00 0.00 40 1028.4
20200928190030 69 249 3.0 4.0 0.00 0.00 0.00 41 1028.6
20200928185031 67 249 2.0 4.0 0.00 0.00 0.00 44 1028.7
20200928184031 67 328 3.0 5.0 0.00 0.00 0.00 44 1028.9
20200928183032 67 292 4.0 5.0 0.00 0.00 0.00 46 1028.8
20200928182029 66 326 3.0 4.0 0.00 0.00 0.00 45 1028.8
20200928181034 65 335 3.0 5.0 0.00 0.00 0.00 46 1028.8
20200928180036 64 267 3.0 3.0 0.00 0.00 0.00 47 1029.0
20200928175021 63 316 2.0 3.0 0.00 0.00 0.00 50 1029.1
20200928174025 62 307 4.0 6.0 0.00 0.00 0.00 52 1029.2
20200928173029 62 294 3.0 5.0 0.00 0.00 0.00 52 1029.3
20200928172031 61 303 1.0 4.0 0.00 0.00 0.00 55 1029.4
20200928171039 60 281 1.0 2.0 0.00 0.00 0.00 56 1029.6
20200928170043 58 276 1.0 2.0 0.00 0.00 0.00 59 1029.6
20200928165024 57 263 1.0 3.0 0.00 0.00 0.00 63 1029.4
20200928164148 56 261 3.0 3.0 0.00 0.00 0.00 63 1029.6
20200928163026 54 260 2.0 3.0 0.00 0.00 0.00 67 1029.5
20200928162032 53 261 1.0 3.0 0.00 0.00 0.00 69 1029.6
20200928161025 52 305 2.0 3.0 0.00 0.00 0.00 70 1029.5
20200928160024 51 302 2.0 3.0 0.00 0.00 0.00 75 1029.5
20200928155025 49 0.0 0.0 0.00 0.00 0.00 76 1029.4
20200928154027 47 0.0 0.0 0.00 0.00 0.00 79 1029.3
20200928153021 47 0.0 0.0 0.00 0.00 0.00 82 1029.4
20200928152033 45 0.0 0.0 0.00 0.00 0.00 87 1029.3
20200928151030 44 0.0 0.0 0.00 0.00 0.00 89 1029.3
20200928150021 46 0.0 0.0 0.00 0.00 0.00 86 1029.3
20200928145021 44 0.0 0.0 0.00 0.00 0.00 90 1029.4
20200928144023 0 0.0 0.0 0.00 0.00 0.00
20200928143029 0 0.0 0.0 0.00 0.00 0.00
20200928142037 36 0.0 0.0 0.00 0.00 0.00 97 1029.1
20200928141041 36 0.0 0.0 0.00 0.00 0.00 97 1029.1
20200928140026 36 0.0 0.0 0.00 0.00 0.00 97 1029.0
20200928135025 36 0.0 0.0 0.00 0.00 0.00 97 1029.0
20200928134022 37 0.0 0.0 0.00 0.00 0.00 97 1029.1
20200928133022 37 0.0 0.0 0.00 0.00 0.00 96 1029.0
20200928132024 37 0.0 0.0 0.00 0.00 0.00 95 1029.1
20200928131021 37 0.0 0.0 0.00 0.00 0.00 96 1029.1
20200928130027 37 0.0 0.0 0.00 0.00 0.00 96 1029.1
20200928125022 38 0.0 0.0 0.00 0.00 0.00 96 1029.1
20200928124026 38 0.0 0.0 0.00 0.00 0.00 97 1029.2
20200928123027 38 0.0 0.0 0.00 0.00 0.00 97 1029.1
20200928122030 38 0.0 0.0 0.00 0.00 0.00 97 1029.2
20200928121029 39 0.0 0.0 0.00 0.00 0.00 97 1029.2
20200928120033 38 0.0 0.0 0.00 0.00 0.00 97 1029.2
20200928115022 39 0.0 0.0 0.00 0.00 0.00 96 1029.4
20200928114029 39 0.0 0.0 0.00 0.00 0.00 95 1029.4
20200928113028 39 0.0 0.0 0.00 0.00 0.00 95 1029.4
20200928112036 39 0.0 0.0 0.00 0.00 0.00 95 1029.5
20200928111031 39 0.0 0.0 0.00 0.00 0.00 95 1029.5
20200928110048 40 0.0 0.0 0.00 0.00 0.00 95 1029.5
20200928105029 40 0.0 0.0 0.00 0.00 0.00 94 1029.6
20200928104021 40 0.0 0.0 0.00 0.00 0.00 93 1029.6
20200928103026 40 0.0 0.0 0.00 0.00 0.00 89 1029.6
20200928102020 40 0.0 0.0 0.00 0.00 0.00 88 1029.7
20200928101035 40 0.0 0.0 0.00 0.00 0.00 85 1029.6